| time (UTC) | temp F | wind direction | speed MPH | gust MPH | rain 1hr in | rain 24hr in | rain mn in | humidity % | barometer mb |
| 20260510230111 | 68 | 51 | 2.0 | 6.0 | 0.00 | 0.00 | 0.00 | 31 | 1019.3 |
| 20260510225311 | 68 | 36 | 1.0 | 4.0 | 0.00 | 0.00 | 0.00 | 30 | 1019.4 |
| 20260510224512 | 68 | 19 | 1.0 | 6.0 | 0.00 | 0.00 | 0.00 | 31 | 1019.3 |
| 20260510223712 | 68 | 32 | 1.0 | 6.0 | 0.00 | 0.00 | 0.00 | 29 | 1019.2 |
| 20260510222912 | 69 | 5 | 2.0 | 8.0 | 0.00 | 0.00 | 0.00 | 29 | 1019.3 |
| 20260510222111 | 70 | 348 | 2.0 | 5.0 | 0.00 | 0.00 | 0.00 | 29 | 1019.4 |
| 20260510221310 | 69 | 320 | 3.0 | 10.0 | 0.00 | 0.00 | 0.00 | 31 | 1019.2 |
| 20260510220511 | 69 | 34 | 2.0 | 10.0 | 0.00 | 0.00 | 0.00 | 30 | 1019.2 |
| 20260510215711 | 70 | 40 | 1.0 | 5.0 | 0.00 | 0.00 | 0.00 | 30 | 1019.0 |
| 20260510214910 | 70 | 35 | 1.0 | 6.0 | 0.00 | 0.00 | 0.00 | 29 | 1019.1 |
| 20260510214112 | 69 | 341 | 1.0 | 7.0 | 0.00 | 0.00 | 0.00 | 32 | 1019.1 |
| 20260510213311 | 69 | 43 | 1.0 | 5.0 | 0.00 | 0.00 | 0.00 | 32 | 1019.1 |
| 20260510212511 | 68 | 5 | 3.0 | 7.0 | 0.00 | 0.00 | 0.00 | 32 | 1019.1 |
| 20260510211712 | 68 | 23 | 2.0 | 9.0 | 0.00 | 0.00 | 0.00 | 29 | 1019.1 |
| 20260510210911 | 69 | 353 | 1.0 | 6.0 | 0.00 | 0.00 | 0.00 | 31 | 1019.1 |
| 20260510210111 | 68 | 32 | 2.0 | 7.0 | 0.00 | 0.00 | 0.00 | 30 | 1019.2 |
| 20260510205312 | 68 | 359 | 2.0 | 10.0 | 0.00 | 0.00 | 0.00 | 31 | 1019.3 |
| 20260510204511 | 68 | 34 | 1.0 | 6.0 | 0.00 | 0.00 | 0.00 | 31 | 1019.3 |
| 20260510203712 | 68 | 37 | 1.0 | 6.0 | 0.00 | 0.00 | 0.00 | 33 | 1019.4 |
| 20260510202912 | 67 | 344 | 1.0 | 7.0 | 0.00 | 0.00 | 0.00 | 33 | 1019.4 |
| 20260510202111 | 67 | 338 | 1.0 | 5.0 | 0.00 | 0.00 | 0.00 | 33 | 1019.5 |
| 20260510201312 | 66 | 28 | 2.0 | 6.0 | 0.00 | 0.00 | 0.00 | 33 | 1019.6 |
| 20260510200512 | 66 | 39 | 1.0 | 5.0 | 0.00 | 0.00 | 0.00 | 35 | 1019.6 |
| 20260510195711 | 66 | 33 | 1.0 | 5.0 | 0.00 | 0.00 | 0.00 | 33 | 1019.6 |
| 20260510194911 | 67 | 20 | 1.0 | 9.0 | 0.00 | 0.00 | 0.00 | 31 | 1019.7 |
| 20260510194112 | 67 | 39 | 1.0 | 6.0 | 0.00 | 0.00 | 0.00 | 33 | 1020.1 |
| 20260510193311 | 67 | 15 | 1.0 | 10.0 | 0.00 | 0.00 | 0.00 | 33 | 1020.1 |
| 20260510192510 | 67 | 45 | 2.0 | 6.0 | 0.00 | 0.00 | 0.00 | 31 | 1020.0 |
| 20260510191711 | 67 | 60 | 2.0 | 6.0 | 0.00 | 0.00 | 0.00 | 30 | 1020.1 |
| 20260510190911 | 67 | 32 | 1.0 | 6.0 | 0.00 | 0.00 | 0.00 | 32 | 1020.0 |
| 20260510190112 | 67 | 25 | 1.0 | 7.0 | 0.00 | 0.00 | 0.00 | 34 | 1020.1 |
| 20260510185311 | 67 | 338 | 2.0 | 11.0 | 0.00 | 0.00 | 0.00 | 33 | 1019.9 |
| 20260510184512 | 67 | 5 | 1.0 | 11.0 | 0.00 | 0.00 | 0.00 | 32 | 1019.9 |
| 20260510183712 | 67 | 1 | 1.0 | 6.0 | 0.00 | 0.00 | 0.00 | 36 | 1019.9 |
| 20260510182911 | 66 | 33 | 2.0 | 6.0 | 0.00 | 0.00 | 0.00 | 34 | 1019.8 |
| 20260510182112 | 66 | 48 | 1.0 | 6.0 | 0.00 | 0.00 | 0.00 | 34 | 1019.7 |
| 20260510181311 | 66 | 8 | 1.0 | 6.0 | 0.00 | 0.00 | 0.00 | 35 | 1019.9 |
| 20260510180511 | 66 | 324 | 1.0 | 6.0 | 0.00 | 0.00 | 0.00 | 34 | 1020.2 |
| 20260510175712 | 66 | 51 | 1.0 | 7.0 | 0.00 | 0.00 | 0.00 | 34 | 1020.2 |
| 20260510174911 | 66 | 63 | 2.0 | 7.0 | 0.00 | 0.00 | 0.00 | 34 | 1020.2 |
| 20260510174112 | 66 | 50 | 1.0 | 7.0 | 0.00 | 0.00 | 0.00 | 33 | 1020.2 |
| 20260510173311 | 66 | 70 | 1.0 | 5.0 | 0.00 | 0.00 | 0.00 | 33 | 1019.9 |
| 20260510172511 | 66 | 48 | 2.0 | 7.0 | 0.00 | 0.00 | 0.00 | 32 | 1020.1 |
| 20260510171712 | 66 | 61 | 3.0 | 7.0 | 0.00 | 0.00 | 0.00 | 31 | 1019.9 |
| 20260510170911 | 67 | 59 | 2.0 | 7.0 | 0.00 | 0.00 | 0.00 | 33 | 1019.9 |
| 20260510170110 | 66 | 43 | 2.0 | 7.0 | 0.00 | 0.00 | 0.00 | 32 | 1019.9 |
| 20260510165312 | 66 | 53 | 2.0 | 6.0 | 0.00 | 0.00 | 0.00 | 36 | 1019.7 |
| 20260510164511 | 66 | 57 | 2.0 | 7.0 | 0.00 | 0.00 | 0.00 | 33 | 1019.6 |
| 20260510163710 | 65 | 54 | 2.0 | 7.0 | 0.00 | 0.00 | 0.00 | 33 | 1019.6 |
| 20260510162912 | 65 | 55 | 2.0 | 9.0 | 0.00 | 0.00 | 0.00 | 34 | 1019.5 |
| 20260510162112 | 65 | 63 | 2.0 | 11.0 | 0.00 | 0.00 | 0.00 | 36 | 1019.7 |
| 20260510161311 | 64 | 55 | 1.0 | 5.0 | 0.00 | 0.00 | 0.00 | 37 | 1019.7 |
| 20260510160510 | 63 | 38 | 1.0 | 9.0 | 0.00 | 0.00 | 0.00 | 37 | 1019.9 |
| 20260510155712 | 63 | 48 | 1.0 | 6.0 | 0.00 | 0.00 | 0.00 | 37 | 1020.0 |
| 20260510154911 | 63 | 56 | 1.0 | 6.0 | 0.00 | 0.00 | 0.00 | 39 | 1019.9 |
| 20260510154110 | 62 | 22 | 2.0 | 10.0 | 0.00 | 0.00 | 0.00 | 38 | 1020.0 |
| 20260510153312 | 62 | 60 | 2.0 | 10.0 | 0.00 | 0.00 | 0.00 | 37 | 1019.8 |
| 20260510152511 | 62 | 63 | 2.0 | 8.0 | 0.00 | 0.00 | 0.00 | 38 | 1019.4 |
| 20260510151712 | 61 | 47 | 3.0 | 10.0 | 0.00 | 0.00 | 0.00 | 37 | 1019.3 |
| 20260510150911 | 62 | 50 | 2.0 | 8.0 | 0.00 | 0.00 | 0.00 | 37 | 1019.2 |
| 20260510150111 | 62 | 61 | 1.0 | 6.0 | 0.00 | 0.00 | 0.00 | 39 | 1019.2 |
| 20260510145312 | 61 | 67 | 2.0 | 9.0 | 0.00 | 0.00 | 0.00 | 40 | 1019.2 |
| 20260510144511 | 60 | 55 | 2.0 | 7.0 | 0.00 | 0.00 | 0.00 | 40 | 1019.5 |
| 20260510143711 | 59 | 52 | 2.0 | 6.0 | 0.00 | 0.00 | 0.00 | 40 | 1019.5 |
| 20260510142911 | 59 | 51 | 1.0 | 5.0 | 0.00 | 0.00 | 0.00 | 42 | 1019.5 |
| 20260510142111 | 59 | 67 | 1.0 | 5.0 | 0.00 | 0.00 | 0.00 | 46 | 1019.5 |
| 20260510141312 | 58 | 72 | 0.0 | 4.0 | 0.00 | 0.00 | 0.00 | 44 | 1019.6 |
| 20260510140511 | 58 | 47 | 1.0 | 5.0 | 0.00 | 0.00 | 0.00 | 45 | 1019.4 |
| 20260510135710 | 58 | 61 | 0.0 | 4.0 | 0.00 | 0.00 | 0.00 | 45 | 1019.3 |
| 20260510134910 | 57 | 53 | 0.0 | 2.0 | 0.00 | 0.00 | 0.00 | 47 | 1019.2 |
| 20260510134112 | 57 | 52 | 0.0 | 4.0 | 0.00 | 0.00 | 0.00 | 45 | 1019.2 |
| 20260510133311 | 57 | 56 | 0.0 | 3.0 | 0.00 | 0.00 | 0.00 | 46 | 1019.1 |
| 20260510132512 | 56 | 60 | 1.0 | 3.0 | 0.00 | 0.00 | 0.00 | 45 | 1019.1 |
| 20260510131711 | 56 | 62 | 2.0 | 5.0 | 0.00 | 0.00 | 0.00 | 46 | 1019.0 |
| 20260510130912 | 56 | 63 | 1.0 | 5.0 | 0.00 | 0.00 | 0.00 | 45 | 1018.7 |
| 20260510130111 | 57 | 47 | 1.0 | 5.0 | 0.00 | 0.00 | 0.00 | 44 | 1018.6 |
| 20260510125310 | 57 | 45 | 2.0 | 7.0 | 0.00 | 0.00 | 0.00 | 44 | 1018.6 |
| 20260510124512 | 57 | 47 | 3.0 | 7.0 | 0.00 | 0.00 | 0.00 | 42 | 1018.5 |
| 20260510123712 | 57 | 50 | 2.0 | 9.0 | 0.00 | 0.00 | 0.00 | 42 | 1018.3 |
| 20260510122911 | 57 | 62 | 0.0 | 3.0 | 0.00 | 0.00 | 0.00 | 43 | 1018.0 |
| 20260510122112 | 57 | 61 | 1.0 | 5.0 | 0.00 | 0.00 | 0.00 | 42 | 1017.8 |
| 20260510121312 | 57 | 50 | 2.0 | 7.0 | 0.00 | 0.00 | 0.00 | 42 | 1017.7 |
| 20260510120511 | 57 | 57 | 2.0 | 8.0 | 0.00 | 0.00 | 0.00 | 42 | 1017.4 |
| 20260510115712 | 57 | 66 | 1.0 | 4.0 | 0.00 | 0.00 | 0.00 | 43 | 1016.8 |
| 20260510114911 | 57 | 59 | 1.0 | 5.0 | 0.00 | 0.00 | 0.00 | 42 | 1016.9 |
| 20260510114110 | 57 | 59 | 2.0 | 5.0 | 0.00 | 0.00 | 0.00 | 43 | 1016.7 |
| 20260510113311 | 57 | 51 | 2.0 | 7.0 | 0.00 | 0.00 | 0.00 | 42 | 1016.5 |
| 20260510112511 | 57 | 47 | 2.0 | 5.0 | 0.00 | 0.00 | 0.00 | 42 | 1016.6 |
| 20260510111711 | 58 | 58 | 2.0 | 7.0 | 0.00 | 0.00 | 0.00 | 42 | 1016.4 |
| 20260510110912 | 58 | 56 | 2.0 | 8.0 | 0.00 | 0.00 | 0.00 | 42 | 1016.4 |
| 20260510110111 | 58 | 59 | 2.0 | 8.0 | 0.00 | 0.00 | 0.00 | 42 | 1016.3 |
| 20260510105310 | 58 | 38 | 3.0 | 7.0 | 0.00 | 0.00 | 0.00 | 42 | 1016.3 |
| 20260510104512 | 58 | 39 | 2.0 | 7.0 | 0.00 | 0.00 | 0.00 | 43 | 1016.3 |
| 20260510103711 | 58 | 49 | 2.0 | 5.0 | 0.00 | 0.00 | 0.00 | 44 | 1016.1 |
| 20260510102911 | 58 | 47 | 2.0 | 10.0 | 0.00 | 0.00 | 0.00 | 43 | 1016.0 |
| 20260510102111 | 58 | 43 | 1.0 | 6.0 | 0.00 | 0.00 | 0.00 | 45 | 1015.8 |
| 20260510101310 | 59 | 42 | 1.0 | 6.0 | 0.00 | 0.00 | 0.00 | 46 | 1015.6 |
| 20260510100512 | 59 | 49 | 2.0 | 10.0 | 0.00 | 0.00 | 0.00 | 47 | 1015.5 |
| 20260510095711 | 59 | 46 | 2.0 | 6.0 | 0.00 | 0.00 | 0.00 | 49 | 1015.3 |
| 20260510094912 | 59 | 36 | 1.0 | 6.0 | 0.00 | 0.00 | 0.00 | 50 | 1015.2 |
| 20260510094112 | 60 | 43 | 2.0 | 6.0 | 0.00 | 0.00 | 0.00 | 51 | 1015.0 |
| 20260510093312 | 60 | 43 | 2.0 | 5.0 | 0.00 | 0.00 | 0.00 | 51 | 1014.9 |
| 20260510092511 | 60 | 57 | 2.0 | 6.0 | 0.00 | 0.00 | 0.00 | 51 | 1015.0 |
| 20260510091712 | 60 | 55 | 2.0 | 6.0 | 0.00 | 0.00 | 0.00 | 50 | 1014.7 |
| 20260510090911 | 60 | 64 | 3.0 | 12.0 | 0.00 | 0.00 | 0.00 | 50 | 1014.7 |
| 20260510090111 | 61 | 60 | 2.0 | 5.0 | 0.00 | 0.00 | 0.00 | 50 | 1014.7 |
| 20260510085312 | 61 | 61 | 3.0 | 9.0 | 0.00 | 0.00 | 0.00 | 50 | 1014.7 |
| 20260510084511 | 61 | 55 | 3.0 | 7.0 | 0.00 | 0.00 | 0.00 | 49 | 1014.6 |
| 20260510083712 | 61 | 54 | 3.0 | 12.0 | 0.00 | 0.00 | 0.00 | 50 | 1014.6 |
| 20260510082911 | 62 | 54 | 3.0 | 10.0 | 0.00 | 0.00 | 0.00 | 51 | 1014.3 |
| 20260510082111 | 62 | 61 | 1.0 | 6.0 | 0.00 | 0.00 | 0.00 | 52 | 1014.4 |
| 20260510081312 | 62 | 39 | 1.0 | 6.0 | 0.00 | 0.00 | 0.00 | 53 | 1014.3 |
| 20260510080511 | 62 | 46 | 1.0 | 4.0 | 0.00 | 0.00 | 0.00 | 55 | 1014.0 |
| 20260510075711 | 62 | 38 | 1.0 | 4.0 | 0.00 | 0.00 | 0.00 | 55 | 1013.8 |
| 20260510074911 | 62 | 47 | 1.0 | 5.0 | 0.00 | 0.00 | 0.00 | 57 | 1013.5 |
| 20260510074112 | 62 | 325 | 0.0 | 2.0 | 0.00 | 0.00 | 0.00 | 60 | 1013.8 |
| 20260510073311 | 62 | 15 | 0.0 | 3.0 | 0.00 | 0.00 | 0.00 | 61 | 1013.6 |
| 20260510072511 | 62 | 10 | 0.0 | 3.0 | 0.00 | 0.00 | 0.00 | 62 | 1013.5 |
| 20260510071710 | 62 | 24 | 0.0 | 4.0 | 0.00 | 0.00 | 0.00 | 61 | 1013.3 |
| 20260510070912 | 62 | 1 | 0.0 | 3.0 | 0.00 | 0.00 | 0.00 | 61 | 1013.2 |
| 20260510070111 | 63 | 0 | 0.0 | 0.0 | 0.00 | 0.00 | 0.00 | 60 | 1013.3 |
| 20260510065312 | 63 | 0 | 0.0 | 0.0 | 0.00 | 0.00 | 0.00 | 59 | 1013.0 |
| 20260510064511 | 64 | 0 | 0.0 | 0.0 | 0.00 | 0.00 | 0.00 | 56 | 1012.9 |
| 20260510063711 | 65 | 0 | 0.0 | 0.0 | 0.00 | 0.00 | 0.00 | 55 | 1012.8 |
| 20260510062912 | 65 | 0 | 0.0 | 0.0 | 0.00 | 0.00 | 0.00 | 54 | 1012.8 |
| 20260510062111 | 66 | 0 | 0.0 | 0.0 | 0.00 | 0.00 | 0.00 | 53 | 1012.8 |
| 20260510061311 | 66 | 0 | 0.0 | 0.0 | 0.00 | 0.00 | 0.00 | 52 | 1012.5 |
| 20260510060512 | 66 | 0 | 0.0 | 0.0 | 0.00 | 0.00 | 0.00 | 52 | 1012.6 |
| 20260510055711 | 66 | 0 | 0.0 | 0.0 | 0.00 | 0.00 | 0.00 | 51 | 1012.7 |
| 20260510054910 | 66 | 0 | 0.0 | 0.0 | 0.00 | 0.00 | 0.00 | 51 | 1012.7 |
| 20260510054112 | 67 | 0 | 0.0 | 0.0 | 0.00 | 0.00 | 0.00 | 51 | 1012.7 |
| 20260510053312 | 67 | 0 | 0.0 | 0.0 | 0.00 | 0.00 | 0.00 | 50 | 1012.7 |
| 20260510052511 | 68 | 0 | 0.0 | 0.0 | 0.00 | 0.00 | 0.00 | 50 | 1012.7 |
| 20260510051712 | 68 | 57 | 1.0 | 6.0 | 0.00 | 0.00 | 0.00 | 49 | 1012.0 |
| 20260510050912 | 68 | 51 | 2.0 | 7.0 | 0.00 | 0.00 | 0.00 | 48 | 1011.6 |
| 20260510050111 | 68 | 60 | 3.0 | 8.0 | 0.00 | 0.00 | 0.00 | 47 | 1011.6 |
| 20260510045312 | 68 | 56 | 3.0 | 8.0 | 0.00 | 0.00 | 0.00 | 47 | 1011.5 |
| 20260510044512 | 68 | 43 | 1.0 | 7.0 | 0.00 | 0.00 | 0.00 | 48 | 1011.4 |
| 20260510043711 | 68 | 54 | 2.0 | 8.0 | 0.00 | 0.00 | 0.00 | 48 | 1011.1 |
| 20260510042912 | 68 | 50 | 2.0 | 6.0 | 0.00 | 0.00 | 0.00 | 49 | 1010.8 |
| 20260510042112 | 68 | 52 | 2.0 | 5.0 | 0.00 | 0.00 | 0.00 | 52 | 1010.7 |
| 20260510041311 | 69 | 30 | 1.0 | 4.0 | 0.00 | 0.00 | 0.00 | 54 | 1010.5 |
| 20260510040512 | 69 | 26 | 0.0 | 3.0 | 0.00 | 0.00 | 0.00 | 54 | 1010.4 |
| 20260510035711 | 69 | 0 | 0.0 | 0.0 | 0.00 | 0.00 | 0.00 | 53 | 1010.2 |
| 20260510034912 | 69 | 0 | 0.0 | 0.0 | 0.00 | 0.00 | 0.00 | 53 | 1010.0 |
| 20260510034111 | 70 | 0 | 0.0 | 0.0 | 0.00 | 0.00 | 0.00 | 53 | 1010.0 |
| 20260510033312 | 70 | 0 | 0.0 | 0.0 | 0.00 | 0.00 | 0.00 | 52 | 1009.8 |
| 20260510032512 | 70 | 64 | 0.0 | 5.0 | 0.00 | 0.00 | 0.00 | 51 | 1009.9 |
| 20260510031711 | 69 | 44 | 1.0 | 8.0 | 0.00 | 0.00 | 0.00 | 52 | 1009.7 |
| 20260510030912 | 69 | 0 | 0.0 | 0.0 | 0.00 | 0.00 | 0.00 | 56 | 1009.7 |
| 20260510030111 | 69 | 0 | 0.0 | 0.0 | 0.00 | 0.00 | 0.00 | 54 | 1009.7 |
| 20260510025310 | 70 | 0 | 0.0 | 0.0 | 0.00 | 0.00 | 0.00 | 53 | 1009.5 |
| 20260510024512 | 70 | 0 | 0.0 | 0.0 | 0.00 | 0.00 | 0.00 | 52 | 1010.0 |
| 20260510023711 | 71 | 0 | 0.0 | 0.0 | 0.00 | 0.00 | 0.00 | 50 | 1009.6 |
| 20260510022912 | 71 | 0 | 0.0 | 0.0 | 0.00 | 0.00 | 0.00 | 50 | 1009.2 |
| 20260510022111 | 71 | 0 | 0.0 | 0.0 | 0.00 | 0.00 | 0.00 | 49 | 1008.8 |
| 20260510021312 | 71 | 0 | 0.0 | 0.0 | 0.00 | 0.00 | 0.00 | 48 | 1008.6 |
| 20260510020511 | 72 | 0 | 0.0 | 0.0 | 0.00 | 0.00 | 0.00 | 48 | 1008.4 |
| 20260510015711 | 72 | 0 | 0.0 | 0.0 | 0.00 | 0.00 | 0.00 | 48 | 1008.4 |
| 20260510014912 | 72 | 311 | 0.0 | 3.0 | 0.00 | 0.00 | 0.00 | 47 | 1008.2 |
| 20260510014111 | 72 | 337 | 1.0 | 5.0 | 0.00 | 0.00 | 0.00 | 46 | 1008.2 |
| 20260510013312 | 73 | 343 | 1.0 | 10.0 | 0.00 | 0.00 | 0.00 | 46 | 1008.2 |
| 20260510012511 | 73 | 346 | 0.0 | 10.0 | 0.00 | 0.00 | 0.00 | 46 | 1008.0 |
| 20260510011712 | 73 | 356 | 1.0 | 11.0 | 0.00 | 0.00 | 0.00 | 46 | 1007.9 |
| 20260510010911 | 73 | 352 | 1.0 | 6.0 | 0.00 | 0.00 | 0.00 | 46 | 1007.7 |
| 20260510010110 | 74 | 0 | 0.0 | 0.0 | 0.00 | 0.00 | 0.00 | 46 | 1007.6 |
| 20260510005312 | 74 | 0 | 0.0 | 0.0 | 0.00 | 0.00 | 0.00 | 45 | 1007.5 |
| 20260510004511 | 75 | 15 | 0.0 | 2.0 | 0.00 | 0.00 | 0.00 | 44 | 1007.4 |
| 20260510003712 | 75 | 352 | 1.0 | 5.0 | 0.00 | 0.00 | 0.00 | 43 | 1007.3 |
| 20260510002911 | 76 | 6 | 1.0 | 6.0 | 0.00 | 0.00 | 0.00 | 43 | 1007.2 |
| 20260510002110 | 76 | 350 | 2.0 | 10.0 | 0.00 | 0.00 | 0.00 | 42 | 1007.1 |
| 20260510001312 | 76 | 341 | 1.0 | 6.0 | 0.00 | 0.00 | 0.00 | 42 | 1007.1 |
| 20260510000511 | 76 | 337 | 1.0 | 6.0 | 0.00 | 0.00 | 0.00 | 42 | 1007.0 |
| 20260509235712 | 77 | 4 | 1.0 | 5.0 | 0.00 | 0.00 | 0.00 | 42 | 1007.0 |
| 20260509234911 | 77 | 345 | 1.0 | 6.0 | 0.00 | 0.00 | 0.00 | 40 | 1006.8 |
| 20260509234112 | 77 | 332 | 1.0 | 6.0 | 0.00 | 0.00 | 0.00 | 40 | 1006.7 |
| 20260509233310 | 78 | 346 | 2.0 | 9.0 | 0.00 | 0.00 | 0.00 | 39 | 1006.7 |
| 20260509232512 | 78 | 352 | 3.0 | 9.0 | 0.00 | 0.00 | 0.00 | 37 | 1006.6 |
| 20260509231711 | 80 | 352 | 1.0 | 6.0 | 0.00 | 0.00 | 0.00 | 35 | 1006.5 |
| 20260509230912 | 80 | 288 | 1.0 | 4.0 | 0.00 | 0.00 | 0.00 | 32 | 1006.2 |